Dalhart, TX

1:45 PM CDT on July 20, 2017 (GMT -0500)
Dalhart Municipal

Weather History for KDHT - April, 2012

Change the Weather History Date:

Sunday, April 15, 2012

  Actual Average Record
Temperature  
Mean Temperature 52 °F 53 °F  
Max Temperature 63 °F 69 °F 89 °F (2002)
Min Temperature 40 °F 37 °F 23 °F (1961)
Degree Days  
Heating Degree Days 13 12  
Month to date heating degree days 115 206  
Since 1 July heating degree days 3900 4460  
Cooling Degree Days 0 0  
Month to date cooling degree days 3 0  
Year to date cooling degree days 9 0  
Growing Degree Days 2 (Base 50)    
Moisture  
Dew Point 28 °F    
Average Humidity 48    
Maximum Humidity 71    
Minimum Humidity 24    
Precipitation  
Precipitation 0.01 in 0.03 in 1.87 in (2016)
Month to date precipitation 0.94 0.48  
Year to date precipitation 1.36 2.57  
Snow  
Snow 0.00 in 0.10 in T in (1949)
Month to date snowfall 0.0 0.9  
Since 1 July snowfall 8.3 18.6  
Snow Depth 0.00 in    
Sea Level Pressure  
Sea Level Pressure 29.68 in    
Wind  
Wind Speed 20 mph (WNW)    
Max Wind Speed 38 mph    
Max Gust Speed 47 mph    
Visibility 10 miles    
Events Rain    
T = Trace of Precipitation, MM = Missing Value Source: NWS Daily Summary

Daily Weather History Graph

Daily Weather History Graph

Search for Another Location

Airport or City:

Trip Planner

Search our weather history database for the weather conditions in past years. The results will help you decide how hot, cold, wet, or windy it might be!

Date:

Astronomy

Apr. 15, 2012 Rise Set
Actual Time 7:16 AM CDT 8:24 PM CDT
Civil Twilight 6:49 AM CDT 8:50 PM CDT
Nautical Twilight 6:18 AM CDT 9:22 PM CDT
Astronomical Twilight 5:45 AM CDT 9:55 PM CDT
Moon 4:05 AM CDT (4/15) 3:30 PM CDT (4/15)
Length of Visible Light 14h 00m
Length of Day
13h 07m
Waning Crescent, 27% of the Moon is Illuminated
Apr 15
Waning Crescent
Apr 21
New
Apr 29
First Quarter
May 5
Full
May 12
Last Quarter

Hourly Weather History & Observations

Time (CDT) Temp. Windchill Dew Point Humidity Pressure Visibility Wind Dir Wind Speed Gust Speed Precip Events Conditions
12:53 AM 50.0 °F - 16.0 °F 26% 29.47 in 10.0 mi WSW 19.6 mph 29.9 mph N/A   Clear
1:53 AM 46.9 °F - 17.1 °F 30% 29.47 in 10.0 mi WSW 18.4 mph 25.3 mph N/A   Clear
2:53 AM 46.0 °F 37.8 °F 18.0 °F 33% 29.45 in 10.0 mi West 23.0 mph 33.4 mph N/A   Clear
3:53 AM 46.0 °F 36.1 °F 15.1 °F 29% 29.43 in 10.0 mi West 34.5 mph 47.2 mph N/A   Clear
4:53 AM 43.0 °F 32.9 °F 17.1 °F 35% 29.48 in 10.0 mi WSW 27.6 mph 34.5 mph N/A   Clear
5:53 AM 41.0 °F 29.8 °F 19.0 °F 41% 29.47 in 10.0 mi WSW 29.9 mph 38.0 mph N/A   Clear
6:53 AM 41.0 °F 30.9 °F 19.9 °F 43% 29.51 in 10.0 mi SW 24.2 mph - N/A   Clear
7:53 AM 41.0 °F 31.6 °F 21.0 °F 45% 29.52 in 10.0 mi SW 20.7 mph 26.5 mph N/A   Clear
8:53 AM 46.0 °F 37.6 °F 21.9 °F 39% 29.54 in 10.0 mi SW 24.2 mph 31.1 mph N/A   Clear
9:53 AM 51.8 °F - 21.2 °F 30% 29.65 in 10.0 mi WNW 24.2 mph 33.4 mph N/A   Mostly Cloudy
10:53 AM 45.0 °F 37.1 °F 36.0 °F 71% 29.62 in 10.0 mi West 19.6 mph - 0.00 in Rain Light Rain
11:53 AM 50.0 °F - 36.0 °F 59% 29.66 in 10.0 mi WSW 18.4 mph - 0.00 in   Overcast
12:53 PM 55.0 °F - 32.0 °F 42% 29.65 in 10.0 mi North 19.6 mph 24.2 mph N/A   Overcast
1:00 PM 55.4 °F - 33.8 °F 44% 29.73 in 10.0 mi North 16.1 mph 24.2 mph N/A   Overcast
1:53 PM 57.9 °F - 30.9 °F 36% 29.67 in 10.0 mi North 21.9 mph 27.6 mph 0.00 in   Overcast
2:53 PM 59.0 °F - 30.0 °F 33% 29.68 in 10.0 mi NW 17.3 mph 28.8 mph 0.00 in Rain Light Rain
3:53 PM 61.0 °F - 27.0 °F 27% 29.70 in 10.0 mi North 17.3 mph 28.8 mph 0.00 in   Scattered Clouds
4:53 PM 62.1 °F - 30.9 °F 31% 29.73 in 10.0 mi North 15.0 mph - N/A   Scattered Clouds
5:53 PM 62.1 °F - 27.0 °F 26% 29.77 in 10.0 mi NW 10.4 mph - N/A   Clear
6:53 PM 46.9 °F - 41.0 °F 80% 29.90 in 8.0 mi NW 32.2 mph 47.2 mph 0.00 in Rain Light Rain
7:53 PM 52.0 °F - 39.9 °F 63% 29.88 in 10.0 mi North 11.5 mph - 0.00 in   Overcast
8:53 PM 50.0 °F - 36.0 °F 59% 29.90 in 10.0 mi NNW 9.2 mph 19.6 mph N/A   Clear
9:53 PM 48.9 °F - 37.0 °F 64% 29.93 in 10.0 mi NNW 10.4 mph - N/A   Clear
10:53 PM 48.2 °F - 37.4 °F 66% 30.07 in 10.0 mi WNW 15.0 mph - N/A   Overcast
11:53 PM 46.9 °F - 37.0 °F 68% 30.00 in 10.0 mi North 20.7 mph - 0.00 in   Overcast